Retour au catalogue

STARLINK-3702

ActifCommunicationsVLEO
NORAD 52100·PAYLOAD·🇺🇸 United States

Lancé Mar 19, 2022 depuis Cape Canaveral Space Force Station

Loading…

Prochains Passages (prochaines 24 heures)

TLE

FraisSource: CelesTrak SupGP

Époque: Sep 14, 2026, 22:14 UTC

1 52100C 22029N   26257.92687500  .00026325  00000+0  77800-3 0  2571
2 52100  53.1582 303.8189 0001203  89.5047 220.6600 15.34368010    13

Suivez STARLINK-3702 en temps réel avec AllMySat

Download on the App Store